Jefferson, NC

1:49 PM EST on December 08, 2019 (GMT -0500)
Ashe County

Weather History for KGEV - November, 2019

Change the Weather History Date:

Monday, November 18, 2019

  Actual Average Record
Temperature  
Mean Temperature 40 °F -  
Max Temperature 49 °F 54 °F 71 °F (2016)
Min Temperature 31 °F 31 °F 13 °F (2014)
Degree Days  
Heating Degree Days 24    
Moisture  
Dew Point 36 °F    
Average Humidity 97    
Maximum Humidity 100    
Minimum Humidity 43    
Precipitation  
Precipitation 0.13 in - - ()
Sea Level Pressure  
Sea Level Pressure 29.78 in    
Wind  
Wind Speed 1 mph ()    
Max Wind Speed 12 mph    
Max Gust Speed 17 mph    
Visibility 3.0 miles    
Events Fog , Rain    
Averages and records for this station are not official NWS values.
T = Trace of Precipitation, MM = Missing Value Source: Averaged Metar Reports

Daily Weather History Graph

Daily Weather History Graph

Search for Another Location

Airport or City:

Astronomy

Nov. 18, 2019 Rise Set
Actual Time 7:05 AM EST 5:15 PM EST
Civil Twilight 6:38 AM EST 5:43 PM EST
Nautical Twilight 6:06 AM EST 6:14 PM EST
Astronomical Twilight 5:36 AM EST 6:44 PM EST
Moon 10:59 PM EST (11/18) 12:35 PM EST (11/18)
Length of Visible Light 11h 04m
Length of Day
10h 09m
Waning Gibbous, 63% of the Moon is Illuminated
Nov 18
Waning Gibbous
Nov 19
Last Quarter
Nov 26
New
Dec 4
First Quarter
Dec 12
Full

Hourly Weather History & Observations

Time (EST) Temp. Windchill Dew Point Humidity Pressure Visibility Wind Dir Wind Speed Gust Speed Precip Events Conditions
12:15 AM 34.7 °F - 34.7 °F 100% 29.89 in 10.0 mi Calm Calm - N/A   Scattered Clouds
12:35 AM 34.9 °F - 34.9 °F 100% 29.88 in 10.0 mi Calm Calm - N/A   Mostly Cloudy
12:55 AM 34.7 °F - 34.7 °F 100% 29.87 in 5.0 mi Calm Calm - N/A   Overcast
1:15 AM 34.9 °F - 34.9 °F 100% 29.86 in 7.0 mi Calm Calm - N/A   Overcast
1:35 AM 34.9 °F - 34.9 °F 100% 29.85 in 0.2 mi Calm Calm - N/A Fog Fog
1:55 AM 35.1 °F - 35.1 °F 100% 29.84 in 0.2 mi Calm Calm - N/A Fog Fog
2:15 AM 35.1 °F - 35.1 °F 100% 29.83 in 0.8 mi Calm Calm - N/A   Overcast
2:35 AM 35.1 °F - 35.1 °F 100% 29.83 in 0.8 mi Calm Calm - N/A   Overcast
2:55 AM 34.9 °F - 34.9 °F 100% 29.83 in 0.2 mi Calm Calm - N/A Fog Fog
3:15 AM 34.9 °F - 34.9 °F 100% 29.82 in 0.2 mi Calm Calm - N/A Fog Fog
3:55 AM 34.3 °F - 34.3 °F 100% 29.81 in 0.8 mi Calm Calm - N/A   Overcast
4:15 AM 34.9 °F - 34.9 °F 100% 29.81 in 10.0 mi Calm Calm - N/A   Mostly Cloudy
4:35 AM 34.0 °F - 34.0 °F 100% 29.81 in 4.0 mi Calm Calm - N/A   Mostly Cloudy
4:55 AM 33.6 °F - 33.6 °F 100% 29.81 in 0.5 mi Calm Calm - N/A Fog Fog
5:15 AM 34.0 °F - 34.0 °F 100% 29.81 in 0.8 mi Calm Calm - N/A   Overcast
5:35 AM 33.1 °F - 33.1 °F 100% 29.81 in 0.5 mi Calm Calm - N/A Fog Fog
5:55 AM 32.9 °F - 32.9 °F 100% 29.80 in 0.5 mi Calm Calm - N/A Fog Fog
6:15 AM 32.9 °F - 32.9 °F 100% 29.80 in 1.0 mi Calm Calm - N/A   Overcast
6:35 AM 32.4 °F - 32.4 °F 100% 29.81 in 4.0 mi Calm Calm - N/A   Mostly Cloudy
7:15 AM 32.9 °F - 32.9 °F 100% 29.81 in 2.5 mi Calm Calm - N/A   Overcast
7:35 AM 32.2 °F - 32.2 °F 100% 29.81 in 0.5 mi Calm Calm - N/A Fog Fog
7:55 AM 32.2 °F 27.7 °F 32.2 °F 100% 29.81 in 0.2 mi South 4.6 mph - N/A Fog Fog
8:15 AM 32.9 °F - 32.9 °F 100% 29.82 in 0.2 mi Calm Calm - N/A Fog Fog
8:35 AM 34.7 °F - 34.7 °F 100% 29.82 in 0.2 mi Calm Calm - N/A Fog Fog
8:55 AM 34.9 °F - 34.9 °F 100% 29.81 in 0.2 mi Calm Calm - N/A Fog Fog
9:15 AM 35.8 °F - 35.8 °F 100% 29.81 in 0.2 mi Calm Calm - N/A Fog Fog
9:35 AM 36.9 °F - 36.9 °F 100% 29.81 in 0.2 mi Calm Calm - N/A Fog Fog
9:55 AM 36.5 °F - 36.5 °F 100% 29.81 in 0.2 mi Calm Calm - N/A Fog Fog
10:15 AM 37.0 °F - 37.0 °F 100% 29.80 in 0.2 mi Calm Calm - N/A   Light Drizzle
10:35 AM 37.8 °F - 37.8 °F 100% 29.79 in 0.2 mi Calm Calm - N/A Fog Fog
10:55 AM 37.6 °F - 37.6 °F 100% 29.79 in 0.2 mi Calm Calm - N/A Fog Fog
11:15 AM 38.3 °F - 38.3 °F 100% 29.79 in 3.0 mi Calm Calm - N/A   Overcast
11:55 AM 39.2 °F - 39.2 °F 100% 29.76 in 1.5 mi Calm Calm - N/A Rain Light Rain
12:15 PM 39.9 °F - 39.9 °F 100% 29.75 in 1.0 mi Calm Calm - N/A   Overcast
12:35 PM 40.3 °F - 40.3 °F 100% 29.75 in 3.0 mi Calm Calm - N/A   Overcast
12:55 PM 40.3 °F - 40.3 °F 100% 29.74 in 10.0 mi Calm Calm - N/A   Overcast
1:35 PM 41.0 °F 39.0 °F 41.0 °F 100% 29.72 in 10.0 mi ESE 3.5 mph - 0.13 in   Overcast
1:55 PM 41.9 °F - 41.9 °F 100% 29.71 in 10.0 mi Calm Calm - 0.13 in   Mostly Cloudy
2:15 PM 43.9 °F - 42.6 °F 95% 29.70 in 10.0 mi Calm Calm - N/A   Clear
2:35 PM 44.1 °F - 40.3 °F 87% 29.70 in 10.0 mi Calm Calm - N/A   Scattered Clouds
2:55 PM 45.9 °F - 39.6 °F 79% 29.70 in 10.0 mi Calm Calm - N/A   Mostly Cloudy
3:15 PM 49.1 °F - 32.0 °F 52% 29.69 in 10.0 mi West 11.5 mph 16.1 mph N/A   Mostly Cloudy
3:35 PM 48.9 °F - 27.0 °F 43% 29.70 in 10.0 mi WSW 11.5 mph 17.3 mph N/A   Clear
3:55 PM 41.5 °F 38.6 °F 38.5 °F 89% 29.70 in 10.0 mi ESE 4.6 mph - N/A   Scattered Clouds
4:15 PM 39.7 °F 37.6 °F 38.8 °F 97% 29.70 in 5.0 mi SE 3.5 mph - N/A   Mostly Cloudy
4:35 PM 39.2 °F 35.9 °F 39.2 °F 100% 29.70 in 0.5 mi SSE 4.6 mph - N/A Fog Fog
4:55 PM 38.7 °F 36.3 °F 38.7 °F 100% 29.70 in 0.2 mi SSE 3.5 mph - N/A Fog Fog
5:35 PM 38.3 °F - 38.3 °F 100% 29.71 in 0.2 mi Calm Calm - N/A Fog Fog
5:55 PM 37.8 °F - 37.8 °F 100% 29.72 in 0.2 mi Calm Calm - N/A Fog Fog
6:15 PM 37.8 °F 35.3 °F 37.8 °F 100% 29.73 in 0.2 mi SE 3.5 mph - N/A Fog Fog
6:35 PM 37.8 °F - 37.8 °F 100% 29.74 in 0.2 mi Calm Calm - N/A Fog Fog
6:55 PM 37.4 °F - 37.4 °F 100% 29.74 in 0.2 mi Calm Calm - N/A Fog Fog
7:15 PM 37.4 °F - 37.4 °F 100% 29.74 in 0.8 mi Calm Calm - N/A   Overcast
7:35 PM 37.4 °F - 37.4 °F 100% 29.75 in 0.8 mi Calm Calm - N/A   Overcast
7:55 PM 36.9 °F - 36.9 °F 100% 29.75 in 4.0 mi Calm Calm - N/A   Overcast
8:15 PM 36.5 °F - 36.5 °F 100% 29.75 in 1.8 mi Calm Calm - N/A   Overcast
8:35 PM 35.8 °F 33.0 °F 35.8 °F 100% 29.75 in 1.5 mi South 3.5 mph - N/A   Overcast
8:55 PM 35.4 °F - 35.2 °F 99% 29.75 in 0.5 mi Calm Calm - N/A Fog Fog
9:15 PM 35.1 °F 32.2 °F 35.1 °F 100% 29.75 in 1.2 mi SSW 3.5 mph - N/A   Overcast
9:55 PM 32.9 °F - 32.9 °F 100% 29.75 in 0.2 mi Calm Calm - N/A Fog Fog
10:35 PM 33.3 °F 30.2 °F 32.0 °F 95% 29.76 in 5.0 mi SSE 3.5 mph - N/A   Scattered Clouds
10:55 PM 35.4 °F 32.6 °F 32.4 °F 89% 29.76 in 0.8 mi WSW 3.5 mph - N/A   Mostly Cloudy
11:35 PM 35.8 °F - 31.8 °F 86% 29.76 in 10.0 mi Calm Calm - N/A   Clear
11:55 PM 31.3 °F - 31.3 °F 100% 29.76 in 1.8 mi Calm Calm - N/A   Scattered Clouds